Location: *
(46.3500°N, 10.9000°E)
Time: 22:06:06
(UTC+00:00)

A-11 Canister half - Pass Details

Date: 24 April 2021
Orbit: 1526 x 1682 km, 47.3° (Epoch: 13 May)

Event Time Altitude Azimuth Distance (km) Brightness Sun altitude
Rises 15:58:35 0° 267° (W) 4,883 13.1 22.5°
Reaches altitude 10° 16:01:42 10° 268° (W) 3,911 13.3 22.0°
Maximum altitude 16:11:51 85° 358° (N) 1,690 9.6 20.2°
Drops below altitude 10° 16:22:04 10° 88° (E) 3,941 10.6 18.4°
Sets 16:25:14 0° 89° (E) 4,922 11.0 17.9°
